Cazaux, France

9:49 PM CEST on August 17, 2017 (GMT +0200)
Cazaux Air Base

Weather History for LFBC - October, 2013

Change the Weather History Date:

Friday, October 18, 2013

  Actual Average Record
Temperature  
Mean Temperature 66 °F -  
Max Temperature 80 °F 59 °F 86 °F (2014)
Min Temperature 53 °F 46 °F 32 °F (2010)
Cooling Degree Days 2    
Growing Degree Days 16 (Base 50)    
Moisture  
Dew Point 54 °F    
Average Humidity 72    
Maximum Humidity 94    
Minimum Humidity 37    
Precipitation  
Precipitation 0.00 in - - ()
Sea Level Pressure  
Sea Level Pressure 29.86 in    
Wind  
Wind Speed 6 mph ()    
Max Wind Speed 15 mph    
Max Gust Speed -    
Visibility 6.2 miles    
Events      
Averages and records for this station are not official NWS values.
T = Trace of Precipitation, MM = Missing Value Source: Averaged Metar Reports

Daily Weather History Graph

Daily Weather History Graph

Search for Another Location

Airport or City:

Trip Planner

Search our weather history database for the weather conditions in past years. The results will help you decide how hot, cold, wet, or windy it might be!

Date:

Astronomy

Oct. 18, 2013 Rise Set
Actual Time 8:23 AM CEST 7:15 PM CEST
Civil Twilight 7:54 AM CEST 7:44 PM CEST
Nautical Twilight 7:20 AM CEST 8:18 PM CEST
Astronomical Twilight 6:46 AM CEST 8:51 PM CEST
Moon 6:55 PM CEST (10/18) 7:43 AM CEST (10/18)
Length of Visible Light 11h 50m
Length of Day
10h 51m
Full, 100% of the Moon is Illuminated
Oct 18
Full
Oct 19
Full
Oct 27
Last Quarter
Nov 3
New
Nov 10
First Quarter

Hourly Weather History & Observations

Time (CEST) Temp. Heat Index Dew Point Humidity Pressure Visibility Wind Dir Wind Speed Gust Speed Precip Events Conditions
12:00 AM 55.4 °F - 51.8 °F 88% 30.01 in 6.2 mi NE 6.9 mph - N/A   Unknown
12:30 AM 55.4 °F - 51.8 °F 88% 29.98 in 6.2 mi NE 6.9 mph - N/A   Unknown
1:00 AM 55.4 °F - 51.8 °F 88% 29.98 in 6.2 mi ENE 6.9 mph - N/A   Unknown
1:30 AM 53.6 °F - 50.0 °F 88% 29.98 in 6.2 mi Variable 2.3 mph - N/A   Unknown
2:00 AM 53.6 °F - 51.8 °F 94% 29.98 in 6.2 mi ENE 3.5 mph - N/A   Unknown
2:30 AM 53.6 °F - 51.8 °F 94% 29.95 in 6.2 mi ENE 4.6 mph - N/A   Unknown
3:00 AM 53.6 °F - 51.8 °F 94% 29.95 in 6.2 mi ENE 4.6 mph - N/A   Unknown
3:30 AM 53.6 °F - 51.8 °F 94% 29.95 in 6.2 mi ENE 4.6 mph - N/A   Unknown
4:00 AM 53.6 °F - 51.8 °F 94% 29.92 in 6.2 mi ENE 5.8 mph - N/A   Unknown
4:30 AM 55.4 °F - 51.8 °F 88% 29.92 in 6.2 mi ENE 4.6 mph - N/A   Unknown
5:00 AM 55.4 °F - 51.8 °F 88% 29.89 in 6.2 mi ENE 4.6 mph - N/A   Unknown
5:30 AM 55.4 °F - 51.8 °F 88% 29.89 in 6.2 mi East 3.5 mph - N/A   Unknown
6:00 AM 55.4 °F - 51.8 °F 88% 29.89 in 6.2 mi Calm Calm - N/A   Unknown
6:30 AM 55.4 °F - 51.8 °F 88% 29.89 in 6.2 mi East 3.5 mph - N/A   Unknown
7:00 AM 55.4 °F - 51.8 °F 88% 29.89 in 6.2 mi NE 3.5 mph - N/A   Unknown
7:30 AM 55.4 °F - 51.8 °F 88% 29.86 in 6.2 mi ENE 4.6 mph - N/A   Unknown
8:00 AM 55.4 °F - 51.8 °F 88% 29.86 in 6.2 mi NE 3.5 mph - N/A   Unknown
8:30 AM 53.6 °F - 51.8 °F 94% 29.86 in 6.2 mi NE 3.5 mph - N/A   Unknown
9:00 AM 53.6 °F - 51.8 °F 94% 29.86 in 6.2 mi NE 5.8 mph - N/A   Unknown
9:30 AM 55.4 °F - 51.8 °F 88% 29.86 in 6.2 mi Variable 2.3 mph - N/A   Unknown
10:00 AM 57.2 °F - 51.8 °F 82% 29.86 in 6.2 mi Variable 2.3 mph - N/A   Unknown
10:30 AM 60.8 °F - 55.4 °F 82% 29.86 in 6.2 mi ESE 6.9 mph - N/A   Unknown
11:00 AM 64.4 °F - 55.4 °F 73% 29.86 in 6.2 mi SE 8.1 mph - N/A   Unknown
11:30 AM 66.2 °F - 55.4 °F 68% 29.86 in 6.2 mi SE 9.2 mph - N/A   Unknown
12:00 PM 69.8 °F - 55.4 °F 60% 29.86 in 6.2 mi SE 10.4 mph - N/A   Unknown
12:30 PM 71.6 °F - 57.2 °F 60% 29.83 in 6.2 mi SE 10.4 mph - N/A   Unknown
1:00 PM 75.2 °F - 57.2 °F 53% 29.83 in 6.2 mi SSE 9.2 mph - N/A   Unknown
1:30 PM 77.0 °F - 57.2 °F 50% 29.83 in 6.2 mi SSE 10.4 mph - N/A   Unknown
2:00 PM 78.8 °F - 59.0 °F 51% 29.80 in 6.2 mi South 10.4 mph - N/A   Unknown
2:30 PM 80.6 °F 80.5 °F 55.4 °F 42% 29.80 in 6.2 mi South 15.0 mph - N/A   Unknown
3:00 PM 80.6 °F 80.5 °F 55.4 °F 42% 29.80 in 6.2 mi South 11.5 mph - N/A   Unknown
3:30 PM 80.6 °F 80.3 °F 53.6 °F 39% 29.80 in 6.2 mi SSW 11.5 mph - N/A   Unknown
4:00 PM 80.6 °F 80.3 °F 53.6 °F 39% 29.80 in 6.2 mi SSW 13.8 mph - N/A   Unknown
4:30 PM 80.6 °F 80.5 °F 55.4 °F 42% 29.80 in 6.2 mi SSW 13.8 mph - N/A   Unknown
5:00 PM 80.6 °F - 51.8 °F 37% 29.80 in 6.2 mi SSW 13.8 mph - N/A   Unknown
5:30 PM 78.8 °F - 53.6 °F 42% 29.80 in 6.2 mi SSW 11.5 mph - N/A   Unknown
6:00 PM 78.8 °F - 53.6 °F 42% 29.80 in 6.2 mi SSW 10.4 mph - N/A   Unknown
6:30 PM 75.2 °F - 55.4 °F 50% 29.80 in 6.2 mi SSW 6.9 mph - N/A   Unknown
7:00 PM 73.4 °F - 55.4 °F 53% 29.80 in 6.2 mi SW 2.3 mph - N/A   Unknown
7:30 PM 69.8 °F - 55.4 °F 60% 29.80 in 6.2 mi WNW 1.2 mph - N/A   Unknown
8:00 PM 66.2 °F - 55.4 °F 68% 29.80 in 6.2 mi West 4.6 mph - N/A   Unknown
8:30 PM 62.6 °F - 51.8 °F 68% 29.83 in 6.2 mi NNW 4.6 mph - N/A   Unknown
9:00 PM 62.6 °F - 55.4 °F 77% 29.83 in 6.2 mi ESE 9.2 mph - N/A   Unknown
9:30 PM 62.6 °F - 53.6 °F 72% 29.83 in 6.2 mi Calm Calm - N/A   Unknown
10:00 PM 62.6 °F - 55.4 °F 77% 29.83 in 6.2 mi Variable 2.3 mph - N/A   Unknown
10:30 PM 62.6 °F - 57.2 °F 82% 29.83 in 6.2 mi Variable 3.5 mph - N/A   Unknown
11:00 PM 64.4 °F - 59.0 °F 83% 29.83 in 6.2 mi East 4.6 mph - N/A   Unknown
11:30 PM 64.4 °F - 59.0 °F 83% 29.83 in 6.2 mi East 3.5 mph - N/A   Unknown